Skip Page Navigation
NASA JPL Caltech
NASA Logo - Jet Propulsion Laboratory + View the NASA Portal
+ Center for Near-Earth Object Studies
JPL Home Earth Solar System Stars & Galaxies Technology
JPL Solar System Dynamics
BODIES ORBITS EPHEMERIDES TOOLS PHYSICAL DATA DISCOVERY FAQ SITE MAP
IMPORTANT: The SSD Announcement email list is now available. Major changes are coming in the near future, including possible hostname and/or URL changes. To be notified of such changes, subscribe to this email list.

Please visit this page for more details.


JPL Small-Body Database Browser
Search: [ help ]  
359269 (2009 FV74)
Classification: Main-belt Asteroid          SPK-ID: 2359269
Ephemeris | Orbit Diagram | Orbital Elements | Mission Design | Physical Parameters | Discovery Circumstances ]

[ show orbit diagram ]
Orbital Elements at Epoch 2458600.5 (2019-Apr-27.0) TDB
Reference: JPL 12 (heliocentric ecliptic J2000)
 Element Value Uncertainty (1-sigma)   Units 
e .1626681130468199 6.3231e-08  
a 2.44095062754746 4.1759e-08 au
q 2.043885794923864 1.6278e-07 au
i 10.5713100285609 9.3596e-06 deg
node 46.76398067133768 3.7955e-05 deg
peri 103.4132324882647 5.1175e-05 deg
M 258.6981454289714 4.0104e-05 deg
tp 2458992.469084933012
(2020-May-22.96908493)
0.00016212 TDB
period 1392.954464391812
3.81
3.5745e-05
9.786e-08
d
yr
n .2584434805319945 6.632e-09 deg/d
Q 2.838015460171056 4.8552e-08 au
  Orbit Determination Parameters
   # obs. used (total)      154  
   data-arc span      4964 days (13.59 yr)  
   first obs. used      2005-03-01  
   last obs. used      2018-10-03  
   planetary ephem.      DE431  
   SB-pert. ephem.      SB431-N16  
   condition code      0  
   norm. resid. RMS      .65638  
   source      ORB  
   producer      Otto Matic  
   solution date      2019-Jul-14 13:06:34  

Additional Information
 Earth MOID = 1.08436 au 
 Jupiter MOID = 2.22306 au 
 T_jup = 3.460 
[ show covariance matrix ]

Ephemeris | Orbit Diagram | Orbital Elements | Mission Design | Physical Parameters | Discovery Circumstances ]

Physical Parameter Table
Parameter Symbol Value Units Sigma Reference Notes
absolute magnitude H 16.9   n/a MPO455593  

359269 (2009 FV74)          Discovered 2009-Mar-18 by CSS at Catalina
Reference: 20130327/Numbers.arcLast Updated: 2013-03-29
Ephemeris | Orbit Diagram | Orbital Elements | Mission Design | Physical Parameters | Discovery Circumstances ]
ABOUT SSD CREDITS/AWARDS PRIVACY/COPYRIGHT GLOSSARY LINKS
FirstGov
(server date/time)  
NASA Home Page
Site Manager:   Ryan S. Park
Webmaster  Alan B. Chamberlin